CCA351 UHPP-ZYCC

Flight info

Callsign CCA351
Flight time N/A
Altitude FL360
Route SAMI4D SAMIK T577 UB B915 FI N222 TOMSU B723 ODEKA T634 MAGIT R213 JMU G212 HRB A588 PABKI W655 DUKIR DUKI9A
Aircraft A320/M-CGHLRTWZ/B1D1

Departure

Time N/A
Airport Yelizovo Airport (UHPP)

Arrival

Time 2026-05-05 15:52
Airport Changchun Longjia International Airport (ZYCC)
Time Latitude Longitude Altitude Speed Heading
2026-05-05 12:09 52.99696 157.34596 26089 ft 305 kts 252°
2026-05-05 12:09 52.99133 157.31216 26347 ft 305 kts 254°
2026-05-05 12:09 52.98579 157.27795 26513 ft 309 kts 255°
2026-05-05 12:10 52.98025 157.24368 26787 ft 309 kts 255°
2026-05-05 12:10 52.97469 157.20933 27008 ft 310 kts 255°
2026-05-05 12:10 52.96906 157.17470 27231 ft 312 kts 255°
2026-05-05 12:10 52.96341 157.13998 27466 ft 313 kts 254°
2026-05-05 12:11 52.95773 157.10520 27680 ft 314 kts 254°
2026-05-05 12:11 52.95200 157.07024 27902 ft 315 kts 254°
2026-05-05 12:11 52.94625 157.03520 28118 ft 317 kts 254°
2026-05-05 12:11 52.94045 156.99995 28335 ft 318 kts 254°
2026-05-05 12:12 52.93463 156.96461 28547 ft 319 kts 254°
2026-05-05 12:12 52.92878 156.92917 28753 ft 320 kts 254°
2026-05-05 12:12 52.92289 156.89358 28954 ft 321 kts 254°
2026-05-05 12:12 52.91697 156.85787 29149 ft 323 kts 253°
2026-05-05 12:13 52.91103 156.82211 29328 ft 324 kts 253°
2026-05-05 12:13 52.90503 156.78601 29496 ft 326 kts 253°
2026-05-05 12:13 52.89899 156.74985 29673 ft 327 kts 253°
2026-05-05 12:13 52.89291 156.71346 29838 ft 329 kts 253°
2026-05-05 12:14 52.88680 156.67694 30001 ft 331 kts 253°
2026-05-05 12:14 52.88063 156.64021 30158 ft 332 kts 253°
2026-05-05 12:14 52.87444 156.60340 30317 ft 334 kts 253°
2026-05-05 12:14 52.86822 156.56646 30470 ft 335 kts 253°
2026-05-05 12:15 52.86195 156.52935 30622 ft 336 kts 253°
2026-05-05 12:15 52.85564 156.49205 30768 ft 338 kts 253°
2026-05-05 12:15 52.84930 156.45465 30910 ft 339 kts 253°
2026-05-05 12:15 52.84293 156.41710 31046 ft 340 kts 253°
2026-05-05 12:16 52.83652 156.37948 31183 ft 342 kts 253°
2026-05-05 12:16 52.83008 156.34170 31320 ft 343 kts 253°
2026-05-05 12:16 52.82359 156.30379 31451 ft 344 kts 253°
2026-05-05 12:16 52.81727 156.26563 31577 ft 346 kts 255°
2026-05-05 12:17 52.81267 156.22653 31701 ft 348 kts 258°
2026-05-05 12:17 52.80866 156.18714 31821 ft 349 kts 258°
2026-05-05 12:17 52.80475 156.14755 31935 ft 350 kts 258°
2026-05-05 12:17 52.80092 156.10787 32059 ft 351 kts 258°
2026-05-05 12:18 52.79710 156.06799 32177 ft 353 kts 259°
2026-05-05 12:18 52.79331 156.02796 32293 ft 354 kts 259°
2026-05-05 12:18 52.78951 155.98784 32403 ft 355 kts 259°
2026-05-05 12:18 52.78572 155.94760 32508 ft 356 kts 259°
2026-05-05 12:19 52.78191 155.90730 32614 ft 357 kts 259°
2026-05-05 12:19 52.77808 155.86680 32723 ft 358 kts 258°
2026-05-05 12:19 52.77424 155.82622 32829 ft 359 kts 259°
2026-05-05 12:19 52.77032 155.78556 32930 ft 360 kts 258°
2026-05-05 12:20 52.76208 155.70393 33121 ft 362 kts 258°
2026-05-05 12:20 52.75383 155.62187 33317 ft 364 kts 258°
2026-05-05 12:21 52.74554 155.53948 33507 ft 366 kts 258°
2026-05-05 12:21 52.73717 155.45663 33683 ft 368 kts 258°
2026-05-05 12:22 52.72872 155.37340 33858 ft 370 kts 258°
2026-05-05 12:22 52.72017 155.28979 34038 ft 371 kts 258°
2026-05-05 12:23 52.71153 155.20580 34205 ft 373 kts 258°
2026-05-05 12:23 52.70279 155.12150 34380 ft 375 kts 258°
2026-05-05 12:24 52.69397 155.03690 34542 ft 376 kts 258°
2026-05-05 12:24 52.68502 154.95178 34697 ft 378 kts 257°
2026-05-05 12:25 52.67603 154.86678 35030 ft 376 kts 257°
2026-05-05 12:25 52.66691 154.78128 35151 ft 384 kts 257°
2026-05-05 12:26 52.65765 154.69472 35156 ft 384 kts 257°
2026-05-05 12:26 52.64834 154.60850 35158 ft 383 kts 257°
2026-05-05 12:27 52.63874 154.52204 35167 ft 389 kts 256°
2026-05-05 12:27 52.62810 154.43367 35165 ft 400 kts 257°
2026-05-05 12:28 52.61765 154.34273 35165 ft 410 kts 257°
2026-05-05 12:28 52.60703 154.24951 35165 ft 420 kts 257°
2026-05-05 12:29 52.59614 154.15411 35167 ft 430 kts 257°
2026-05-05 12:29 52.58502 154.05714 35167 ft 433 kts 257°
2026-05-05 12:30 52.57379 153.96011 35168 ft 433 kts 257°
2026-05-05 12:30 52.56249 153.86326 35170 ft 433 kts 257°
2026-05-05 12:31 52.55108 153.76629 35170 ft 433 kts 257°
2026-05-05 12:31 52.53959 153.66937 35173 ft 433 kts 256°
2026-05-05 12:32 52.52802 153.57262 35174 ft 433 kts 256°
2026-05-05 12:32 52.51635 153.47568 35176 ft 433 kts 256°
2026-05-05 12:33 52.50461 153.37897 35177 ft 433 kts 256°
2026-05-05 12:33 52.49279 153.28228 35178 ft 433 kts 256°
2026-05-05 12:34 52.48090 153.18572 35181 ft 433 kts 256°
2026-05-05 12:34 52.46891 153.08908 35182 ft 433 kts 256°
2026-05-05 12:35 52.45684 152.99245 35164 ft 433 kts 256°
2026-05-05 12:35 52.44471 152.89606 35161 ft 433 kts 256°
2026-05-05 12:36 52.43246 152.79948 35163 ft 433 kts 256°
2026-05-05 12:36 52.42017 152.70316 35165 ft 433 kts 256°
2026-05-05 12:37 52.40777 152.60667 35167 ft 433 kts 256°
2026-05-05 12:37 52.39530 152.51038 35170 ft 433 kts 256°
2026-05-05 12:38 52.38276 152.41414 35171 ft 433 kts 255°
2026-05-05 12:38 52.37011 152.31779 35173 ft 434 kts 255°
2026-05-05 12:39 52.35740 152.22158 35175 ft 433 kts 255°
2026-05-05 12:39 52.34461 152.12539 35177 ft 434 kts 255°
2026-05-05 12:40 52.33175 152.02934 35180 ft 433 kts 255°
2026-05-05 12:40 52.31880 151.93329 35182 ft 434 kts 255°
2026-05-05 12:41 52.30578 151.83735 35184 ft 434 kts 255°
2026-05-05 12:41 52.29266 151.74135 35187 ft 434 kts 255°
2026-05-05 12:42 52.27947 151.64538 35190 ft 434 kts 255°
2026-05-05 12:42 52.26619 151.54947 35194 ft 434 kts 255°
2026-05-05 12:43 52.25284 151.45358 35196 ft 434 kts 255°
2026-05-05 12:43 52.23942 151.35778 35199 ft 434 kts 255°
2026-05-05 12:44 52.22615 151.26191 35201 ft 434 kts 255°
2026-05-05 12:44 52.21300 151.16598 35203 ft 434 kts 255°
2026-05-05 12:45 52.19991 151.07021 35235 ft 432 kts 255°
2026-05-05 12:45 52.18690 150.97512 35283 ft 431 kts 256°
2026-05-05 12:46 52.17391 150.87992 35291 ft 432 kts 256°
2026-05-05 12:46 52.16087 150.78487 35308 ft 429 kts 256°
2026-05-05 12:47 52.14785 150.69019 35320 ft 430 kts 256°
2026-05-05 12:47 52.13473 150.59486 35312 ft 432 kts 255°
2026-05-05 12:48 52.12153 150.50020 35331 ft 429 kts 256°
2026-05-05 12:48 52.10831 150.40556 35344 ft 430 kts 256°
2026-05-05 12:49 52.09503 150.31104 35348 ft 430 kts 256°
2026-05-05 12:49 52.08166 150.21645 35356 ft 430 kts 255°
2026-05-05 12:50 52.06823 150.12196 35379 ft 430 kts 255°
2026-05-05 12:50 52.05472 150.02750 35389 ft 430 kts 255°
2026-05-05 12:51 52.03911 149.93434 35463 ft 428 kts 253°
2026-05-05 12:51 52.02406 149.84107 35542 ft 424 kts 255°
2026-05-05 12:52 52.00948 149.74825 35581 ft 427 kts 255°
2026-05-05 12:52 51.99485 149.65490 35529 ft 427 kts 255°
2026-05-05 12:53 51.98019 149.56203 35539 ft 425 kts 255°
2026-05-05 12:53 51.96553 149.46887 35495 ft 429 kts 254°
2026-05-05 12:54 51.94319 149.32914 35507 ft 426 kts 254°
2026-05-05 12:55 51.92828 149.23601 35487 ft 430 kts 253°
2026-05-05 12:55 51.91317 149.14272 35499 ft 426 kts 254°
2026-05-05 12:56 51.89812 149.05007 35511 ft 428 kts 254°
2026-05-05 12:56 51.88291 148.95683 35482 ft 429 kts 253°
2026-05-05 12:57 51.86760 148.86372 35481 ft 429 kts 253°
2026-05-05 12:57 51.85223 148.77073 35480 ft 429 kts 253°
2026-05-05 12:58 51.83677 148.67786 35493 ft 427 kts 253°
2026-05-05 12:58 51.82134 148.58548 35507 ft 427 kts 253°
2026-05-05 12:59 51.80577 148.49257 35483 ft 429 kts 253°
2026-05-05 12:59 51.79008 148.39980 35482 ft 429 kts 253°
2026-05-05 13:00 51.76643 148.26074 35481 ft 429 kts 253°
2026-05-05 13:01 51.73466 148.07568 35480 ft 429 kts 252°
2026-05-05 13:01 51.71866 147.98322 35480 ft 429 kts 252°
2026-05-05 13:02 51.70258 147.89078 35481 ft 429 kts 252°
2026-05-05 13:02 51.68644 147.79848 35479 ft 429 kts 252°
2026-05-05 13:03 51.67029 147.70691 35605 ft 427 kts 253°
2026-05-05 13:03 51.65409 147.61504 35616 ft 427 kts 253°
2026-05-05 13:04 51.63781 147.52338 35617 ft 427 kts 253°
2026-05-05 13:04 51.62147 147.43183 35617 ft 427 kts 253°
2026-05-05 13:05 51.60504 147.34030 35617 ft 427 kts 253°
2026-05-05 13:05 51.58856 147.24888 35617 ft 427 kts 253°
2026-05-05 13:06 51.57200 147.15754 35617 ft 427 kts 253°
2026-05-05 13:06 51.55536 147.06623 35617 ft 427 kts 253°
2026-05-05 13:07 51.53864 146.97490 35617 ft 427 kts 253°
2026-05-05 13:07 51.52186 146.88373 35617 ft 427 kts 253°
2026-05-05 13:08 51.50500 146.79257 35617 ft 427 kts 253°
2026-05-05 13:08 51.48807 146.70147 35617 ft 427 kts 253°
2026-05-05 13:09 51.47108 146.61047 35617 ft 427 kts 253°
2026-05-05 13:09 51.45402 146.51962 35617 ft 427 kts 253°
2026-05-05 13:10 51.43687 146.42868 35617 ft 427 kts 253°
2026-05-05 13:10 51.41930 146.33809 35617 ft 427 kts 252°
2026-05-05 13:11 51.40130 146.24773 35617 ft 427 kts 252°
2026-05-05 13:11 51.38342 146.15731 35616 ft 427 kts 252°
2026-05-05 13:12 51.36561 146.06695 35616 ft 427 kts 252°
2026-05-05 13:12 51.34780 145.97655 35616 ft 427 kts 252°
2026-05-05 13:13 51.32997 145.88618 35616 ft 427 kts 252°
2026-05-05 13:13 51.31212 145.79590 35616 ft 427 kts 252°
2026-05-05 13:14 51.29423 145.70569 35616 ft 427 kts 252°
2026-05-05 13:14 51.27628 145.61554 35616 ft 427 kts 252°
2026-05-05 13:15 51.25828 145.52545 35616 ft 427 kts 252°
2026-05-05 13:15 51.24021 145.43540 35616 ft 427 kts 252°
2026-05-05 13:16 51.22208 145.34544 35616 ft 427 kts 252°
2026-05-05 13:16 51.20387 145.25553 35616 ft 427 kts 252°
2026-05-05 13:17 51.18561 145.16574 35616 ft 427 kts 252°
2026-05-05 13:17 51.16728 145.07600 35616 ft 427 kts 252°
2026-05-05 13:18 51.14888 144.98629 35616 ft 427 kts 251°
2026-05-05 13:18 51.13040 144.89666 35616 ft 427 kts 251°
2026-05-05 13:19 51.11188 144.80719 35616 ft 427 kts 251°
2026-05-05 13:19 51.09326 144.71763 35616 ft 427 kts 251°
2026-05-05 13:20 51.07460 144.62831 35616 ft 427 kts 251°
2026-05-05 13:20 51.05585 144.53894 35616 ft 427 kts 251°
2026-05-05 13:21 51.03703 144.44967 35616 ft 427 kts 251°
2026-05-05 13:21 51.01815 144.36048 35616 ft 427 kts 251°
2026-05-05 13:22 50.99862 144.27183 35616 ft 427 kts 250°
2026-05-05 13:22 50.97902 144.18293 35616 ft 427 kts 251°
2026-05-05 13:23 50.95972 144.09413 35616 ft 427 kts 251°
2026-05-05 13:23 50.94057 144.00523 35616 ft 427 kts 251°
2026-05-05 13:24 50.92137 143.91636 35616 ft 427 kts 251°
2026-05-05 13:24 50.90205 143.82762 35616 ft 427 kts 251°
2026-05-05 13:25 50.88279 143.73887 35616 ft 427 kts 251°
2026-05-05 13:25 50.86356 143.65015 35616 ft 427 kts 251°
2026-05-05 13:26 50.84432 143.56151 35616 ft 427 kts 251°
2026-05-05 13:26 50.82504 143.47285 35616 ft 427 kts 251°
2026-05-05 13:27 50.80546 143.38444 35615 ft 427 kts 250°
2026-05-05 13:27 50.78581 143.29607 35615 ft 427 kts 250°
2026-05-05 13:28 50.76617 143.20770 35614 ft 427 kts 250°
2026-05-05 13:28 50.74653 143.11941 35615 ft 427 kts 250°
2026-05-05 13:29 50.72686 143.03111 35615 ft 427 kts 250°
2026-05-05 13:29 50.70716 142.94295 35615 ft 427 kts 250°
2026-05-05 13:30 50.68739 142.85475 35615 ft 427 kts 250°
2026-05-05 13:30 50.66789 142.76653 35613 ft 428 kts 253°
2026-05-05 13:31 50.65239 142.67630 35614 ft 427 kts 255°
2026-05-05 13:31 50.63728 142.58593 35614 ft 428 kts 255°
2026-05-05 13:32 50.62217 142.49542 35612 ft 428 kts 255°
2026-05-05 13:32 50.60708 142.40510 35614 ft 428 kts 255°
2026-05-05 13:33 50.59178 142.31479 35614 ft 428 kts 254°
2026-05-05 13:33 50.57634 142.22450 35613 ft 428 kts 254°
2026-05-05 13:34 50.56092 142.13422 35612 ft 428 kts 254°
2026-05-05 13:34 50.54548 142.04395 35611 ft 428 kts 254°
2026-05-05 13:35 50.53001 141.95369 35614 ft 429 kts 254°
2026-05-05 13:35 50.51451 141.86349 35610 ft 429 kts 254°
2026-05-05 13:36 50.49891 141.77319 35611 ft 429 kts 254°
2026-05-05 13:36 50.48329 141.68308 35613 ft 429 kts 254°
2026-05-05 13:37 50.46759 141.59290 35609 ft 429 kts 254°
2026-05-05 13:37 50.45180 141.50296 35613 ft 428 kts 253°
2026-05-05 13:38 50.43548 141.41316 35609 ft 429 kts 253°
2026-05-05 13:38 50.41920 141.32333 35609 ft 429 kts 253°
2026-05-05 13:39 50.40299 141.23361 35609 ft 429 kts 253°
2026-05-05 13:39 50.38678 141.14383 35609 ft 429 kts 253°
2026-05-05 13:40 50.37057 141.05415 35609 ft 429 kts 253°
2026-05-05 13:40 50.35431 140.96443 35609 ft 429 kts 253°
2026-05-05 13:41 50.33803 140.87483 35609 ft 429 kts 253°
2026-05-05 13:41 50.32139 140.78540 35609 ft 429 kts 253°
2026-05-05 13:42 50.30464 140.69596 35600 ft 430 kts 253°
2026-05-05 13:42 50.28782 140.60588 35581 ft 433 kts 253°
2026-05-05 13:43 50.27099 140.51567 35579 ft 433 kts 253°
2026-05-05 13:43 50.25415 140.42558 35580 ft 433 kts 253°
2026-05-05 13:44 50.23727 140.33551 35579 ft 433 kts 253°
2026-05-05 13:44 50.22034 140.24542 35578 ft 433 kts 253°
2026-05-05 13:45 50.20336 140.15547 35578 ft 433 kts 253°
2026-05-05 13:45 50.18629 140.06541 35577 ft 433 kts 253°
2026-05-05 13:46 50.16919 139.97555 35576 ft 433 kts 253°
2026-05-05 13:46 50.15202 139.88569 35575 ft 434 kts 253°
2026-05-05 13:47 50.13475 139.79576 35575 ft 434 kts 253°
2026-05-05 13:47 50.11743 139.70598 35573 ft 434 kts 253°
2026-05-05 13:48 50.10001 139.61600 35560 ft 435 kts 253°
2026-05-05 13:48 50.08252 139.52612 35560 ft 435 kts 253°
2026-05-05 13:49 50.06496 139.43628 35560 ft 435 kts 252°
2026-05-05 13:49 50.04732 139.34649 35559 ft 435 kts 252°
2026-05-05 13:50 50.02961 139.25674 35559 ft 435 kts 252°
2026-05-05 13:50 50.01182 139.16701 35558 ft 435 kts 252°
2026-05-05 13:51 49.99398 139.07739 35557 ft 435 kts 252°
2026-05-05 13:51 49.97605 138.98778 35557 ft 435 kts 252°
2026-05-05 13:52 49.95806 138.89823 35556 ft 435 kts 252°
2026-05-05 13:52 49.93999 138.80874 35556 ft 435 kts 252°
2026-05-05 13:53 49.92183 138.71921 35555 ft 435 kts 252°
2026-05-05 13:53 49.90363 138.62987 35555 ft 435 kts 252°
2026-05-05 13:54 49.88476 138.54090 35555 ft 435 kts 250°
2026-05-05 13:54 49.86487 138.45243 35554 ft 436 kts 251°
2026-05-05 13:55 49.84526 138.36377 35554 ft 436 kts 251°
2026-05-05 13:55 49.82588 138.27510 35553 ft 436 kts 251°
2026-05-05 13:56 49.80661 138.18630 35553 ft 436 kts 251°
2026-05-05 13:56 49.78741 138.09753 35553 ft 436 kts 251°
2026-05-05 13:57 49.76822 138.00872 35552 ft 436 kts 251°
2026-05-05 13:57 49.74902 137.91989 35552 ft 436 kts 251°
2026-05-05 13:58 49.72981 137.83114 35552 ft 436 kts 251°
2026-05-05 13:58 49.71056 137.74245 35552 ft 436 kts 251°
2026-05-05 13:59 49.68150 137.60946 35551 ft 436 kts 251°
2026-05-05 14:00 49.65158 137.47706 35551 ft 437 kts 251°
2026-05-05 14:00 49.63171 137.38871 35551 ft 437 kts 251°
2026-05-05 14:01 49.61190 137.30041 35550 ft 437 kts 251°
2026-05-05 14:01 49.59210 137.21215 35550 ft 437 kts 251°
2026-05-05 14:02 49.57227 137.12384 35550 ft 437 kts 251°
2026-05-05 14:02 49.55242 137.03563 35550 ft 437 kts 251°
2026-05-05 14:03 49.53255 136.94756 35550 ft 437 kts 250°
2026-05-05 14:03 49.51258 136.85936 35550 ft 437 kts 250°
2026-05-05 14:04 49.49257 136.77124 35550 ft 437 kts 250°
2026-05-05 14:04 49.47250 136.68319 35550 ft 437 kts 250°
2026-05-05 14:05 49.44906 136.59741 35549 ft 437 kts 241°
2026-05-05 14:05 49.41306 136.52252 35550 ft 439 kts 227°
2026-05-05 14:06 49.37051 136.45548 35550 ft 439 kts 227°
2026-05-05 14:06 49.32782 136.38869 35550 ft 439 kts 227°
2026-05-05 14:07 49.28510 136.32213 35550 ft 439 kts 227°
2026-05-05 14:07 49.24234 136.25575 35550 ft 439 kts 227°
2026-05-05 14:08 49.19950 136.18948 35550 ft 439 kts 227°
2026-05-05 14:08 49.15660 136.12330 35550 ft 439 kts 227°
2026-05-05 14:09 49.11369 136.05732 35551 ft 439 kts 227°
2026-05-05 14:09 49.07067 135.99138 35551 ft 439 kts 227°
2026-05-05 14:10 49.02767 135.92560 35577 ft 439 kts 227°
2026-05-05 14:10 48.99278 135.85070 35580 ft 435 kts 246°
2026-05-05 14:11 48.98320 135.80717 35581 ft 435 kts 257°
2026-05-05 14:11 48.97921 135.76162 35583 ft 435 kts 264°
2026-05-05 14:11 48.97473 135.66991 35581 ft 435 kts 265°
2026-05-05 14:12 48.97061 135.57829 35580 ft 435 kts 265°
2026-05-05 14:12 48.96670 135.48654 35580 ft 435 kts 265°
2026-05-05 14:13 48.96270 135.39493 35580 ft 435 kts 265°
2026-05-05 14:13 48.95865 135.30338 35580 ft 435 kts 265°
2026-05-05 14:14 48.95467 135.21182 35580 ft 435 kts 265°
2026-05-05 14:14 48.95073 135.12012 35580 ft 435 kts 265°
2026-05-05 14:15 48.94678 135.02856 35580 ft 435 kts 265°
2026-05-05 14:15 48.94282 134.93702 35579 ft 436 kts 265°
2026-05-05 14:16 48.93881 134.84525 35579 ft 435 kts 265°
2026-05-05 14:16 48.93474 134.75359 35579 ft 435 kts 265°
2026-05-05 14:17 48.93049 134.66199 35579 ft 435 kts 264°
2026-05-05 14:17 48.92580 134.57042 35579 ft 435 kts 264°
2026-05-05 14:18 48.92118 134.47889 35579 ft 435 kts 264°
2026-05-05 14:18 48.91659 134.38733 35579 ft 435 kts 264°
2026-05-05 14:19 48.91200 134.29572 35579 ft 435 kts 264°
2026-05-05 14:19 48.90727 134.20414 35579 ft 435 kts 264°
2026-05-05 14:20 48.90243 134.11265 35579 ft 435 kts 264°
2026-05-05 14:20 48.89761 134.02119 35579 ft 435 kts 264°
2026-05-05 14:21 48.89277 133.92971 35572 ft 433 kts 264°
2026-05-05 14:21 48.88794 133.83869 35569 ft 433 kts 264°
2026-05-05 14:22 48.88308 133.74771 35566 ft 433 kts 264°
2026-05-05 14:22 48.87817 133.65663 35566 ft 433 kts 264°
2026-05-05 14:23 48.87320 133.56562 35564 ft 433 kts 264°
2026-05-05 14:23 48.86819 133.47483 35562 ft 433 kts 264°
2026-05-05 14:24 48.86309 133.38383 35563 ft 433 kts 264°
2026-05-05 14:24 48.85794 133.29307 35560 ft 432 kts 264°
2026-05-05 14:25 48.85272 133.20226 35558 ft 432 kts 264°
2026-05-05 14:25 48.84743 133.11153 35557 ft 432 kts 264°
2026-05-05 14:26 48.84207 133.02099 35554 ft 432 kts 264°
2026-05-05 14:26 48.82943 132.93249 35552 ft 431 kts 249°
2026-05-05 14:27 48.79980 132.85395 35551 ft 432 kts 235°
2026-05-05 14:27 48.76415 132.78080 35546 ft 432 kts 234°
2026-05-05 14:28 48.72844 132.70805 35543 ft 431 kts 234°
2026-05-05 14:28 48.69255 132.63537 35541 ft 431 kts 234°
2026-05-05 14:29 48.65668 132.56306 35538 ft 431 kts 234°
2026-05-05 14:29 48.62069 132.49081 35536 ft 431 kts 234°
2026-05-05 14:30 48.58471 132.41882 35533 ft 430 kts 234°
2026-05-05 14:30 48.54872 132.34708 35527 ft 429 kts 234°
2026-05-05 14:31 48.51269 132.27548 35525 ft 429 kts 234°
2026-05-05 14:31 48.47661 132.20399 35523 ft 429 kts 234°
2026-05-05 14:32 48.44053 132.13272 35519 ft 428 kts 234°
2026-05-05 14:32 48.40447 132.06169 35514 ft 428 kts 234°
2026-05-05 14:33 48.36838 131.99079 35511 ft 427 kts 234°
2026-05-05 14:33 48.33229 131.92010 35507 ft 427 kts 234°
2026-05-05 14:34 48.29622 131.84965 35503 ft 426 kts 234°
2026-05-05 14:34 48.26010 131.77926 35500 ft 426 kts 234°
2026-05-05 14:35 48.22400 131.70912 35495 ft 425 kts 234°
2026-05-05 14:35 48.18788 131.63913 35491 ft 425 kts 234°
2026-05-05 14:36 48.14812 131.57377 35487 ft 427 kts 224°
2026-05-05 14:36 48.10035 131.52098 35484 ft 430 kts 215°
2026-05-05 14:37 48.04948 131.47414 35480 ft 430 kts 214°
2026-05-05 14:37 47.99863 131.42754 35477 ft 430 kts 214°
2026-05-05 14:38 47.94783 131.38114 35473 ft 429 kts 214°
2026-05-05 14:38 47.89701 131.33487 35469 ft 428 kts 214°
2026-05-05 14:39 47.84626 131.28879 35465 ft 428 kts 214°
2026-05-05 14:39 47.79553 131.24284 35459 ft 427 kts 214°
2026-05-05 14:40 47.74489 131.19710 35456 ft 427 kts 214°
2026-05-05 14:40 47.69415 131.15155 35454 ft 428 kts 213°
2026-05-05 14:41 47.64216 131.10879 35451 ft 428 kts 212°
2026-05-05 14:41 47.59018 131.06640 35448 ft 427 kts 212°
2026-05-05 14:42 47.53822 131.02403 35447 ft 427 kts 212°
2026-05-05 14:42 47.48627 130.98172 35446 ft 427 kts 212°
2026-05-05 14:43 47.43429 130.93944 35444 ft 427 kts 212°
2026-05-05 14:43 47.38220 130.89719 35450 ft 431 kts 213°
2026-05-05 14:44 47.32984 130.85474 35448 ft 430 kts 213°
2026-05-05 14:44 47.27756 130.81242 35446 ft 430 kts 213°
2026-05-05 14:45 47.22524 130.77018 35443 ft 430 kts 213°
2026-05-05 14:45 47.17289 130.72799 35441 ft 430 kts 213°
2026-05-05 14:46 47.12054 130.68591 35441 ft 430 kts 213°
2026-05-05 14:46 47.07553 130.64980 35437 ft 429 kts 213°
2026-05-05 14:47 47.02314 130.60786 35435 ft 429 kts 213°
2026-05-05 14:47 46.97080 130.56606 35434 ft 430 kts 213°
2026-05-05 14:48 46.91846 130.52434 35433 ft 425 kts 213°
2026-05-05 14:48 46.89302 130.50403 35429 ft 409 kts 214°
2026-05-05 14:48 46.87020 130.48123 35427 ft 389 kts 223°
2026-05-05 14:49 46.85122 130.45455 35426 ft 371 kts 232°
2026-05-05 14:49 46.83617 130.42509 35417 ft 355 kts 241°
2026-05-05 14:49 46.82493 130.39406 35424 ft 339 kts 248°
2026-05-05 14:49 46.81538 130.36346 35422 ft 326 kts 249°
2026-05-05 14:50 46.79796 130.30227 35439 ft 333 kts 250°
2026-05-05 14:50 46.78035 130.23826 35443 ft 348 kts 251°
2026-05-05 14:51 46.76206 130.17134 35443 ft 363 kts 251°
2026-05-05 14:51 46.74304 130.10177 35443 ft 377 kts 250°
2026-05-05 14:52 46.72331 130.02968 35445 ft 390 kts 250°
2026-05-05 14:52 46.70291 129.95536 35446 ft 402 kts 250°
2026-05-05 14:53 46.68183 129.87881 35449 ft 413 kts 250°
2026-05-05 14:53 46.66023 129.80057 35459 ft 419 kts 250°
2026-05-05 14:54 46.63848 129.72215 35464 ft 419 kts 250°
2026-05-05 14:54 46.61668 129.64382 35469 ft 419 kts 250°
2026-05-05 14:55 46.59484 129.56558 35480 ft 418 kts 250°
2026-05-05 14:55 46.57292 129.48734 35483 ft 419 kts 250°
2026-05-05 14:56 46.55096 129.40924 35491 ft 419 kts 250°
2026-05-05 14:56 46.52895 129.33121 35500 ft 418 kts 250°
2026-05-05 14:57 46.50688 129.25323 35506 ft 418 kts 250°
2026-05-05 14:57 46.48477 129.17535 35519 ft 418 kts 250°
2026-05-05 14:58 46.46263 129.09763 35534 ft 418 kts 249°
2026-05-05 14:58 46.44043 129.01993 35539 ft 418 kts 249°
2026-05-05 14:59 46.41818 128.94232 35547 ft 418 kts 249°
2026-05-05 14:59 46.39588 128.86479 35560 ft 417 kts 249°
2026-05-05 15:00 46.37726 128.80026 35566 ft 418 kts 249°
2026-05-05 15:00 46.35115 128.71003 35576 ft 417 kts 249°
2026-05-05 15:01 46.32871 128.63274 35584 ft 417 kts 249°
2026-05-05 15:01 46.30625 128.55566 35595 ft 417 kts 249°
2026-05-05 15:02 46.28374 128.47861 35605 ft 417 kts 249°
2026-05-05 15:02 46.26118 128.40165 35614 ft 416 kts 249°
2026-05-05 15:03 46.23860 128.32488 35619 ft 416 kts 249°
2026-05-05 15:03 46.21593 128.24804 35629 ft 416 kts 249°
2026-05-05 15:04 46.19324 128.17134 35636 ft 416 kts 249°
2026-05-05 15:04 46.17052 128.09480 35642 ft 416 kts 249°
2026-05-05 15:05 46.13634 127.98010 35651 ft 416 kts 248°
2026-05-05 15:06 46.11353 127.90384 35663 ft 415 kts 248°
2026-05-05 15:06 46.09066 127.82761 35667 ft 415 kts 248°
2026-05-05 15:07 46.06774 127.75148 35671 ft 415 kts 248°
2026-05-05 15:07 46.04477 127.67538 35652 ft 415 kts 248°
2026-05-05 15:08 46.02178 127.59946 35650 ft 415 kts 248°
2026-05-05 15:08 45.99876 127.52367 35653 ft 415 kts 248°
2026-05-05 15:09 45.97558 127.44767 35454 ft 417 kts 249°
2026-05-05 15:09 45.96413 127.40993 35079 ft 409 kts 249°
2026-05-05 15:09 45.95312 127.37277 34703 ft 401 kts 250°
2026-05-05 15:09 45.94241 127.33627 34328 ft 394 kts 250°
2026-05-05 15:10 45.93193 127.30037 33952 ft 387 kts 250°
2026-05-05 15:10 45.92166 127.26507 33577 ft 381 kts 250°
2026-05-05 15:10 45.91158 127.23034 33201 ft 374 kts 250°
2026-05-05 15:10 45.90169 127.19620 32826 ft 369 kts 250°
2026-05-05 15:11 45.89195 127.16255 32451 ft 363 kts 250°
2026-05-05 15:11 45.88236 127.12938 32076 ft 358 kts 250°
2026-05-05 15:11 45.87290 127.09667 31701 ft 353 kts 250°
2026-05-05 15:11 45.86357 127.06441 31325 ft 348 kts 250°
2026-05-05 15:12 45.85437 127.03262 30950 ft 344 kts 250°
2026-05-05 15:12 45.84526 127.00119 30575 ft 340 kts 250°
2026-05-05 15:12 45.83627 126.97017 30200 ft 335 kts 250°
2026-05-05 15:12 45.82738 126.93956 29825 ft 332 kts 250°
2026-05-05 15:13 45.81856 126.90924 29449 ft 328 kts 250°
2026-05-05 15:13 45.80987 126.87935 29075 ft 324 kts 250°
2026-05-05 15:13 45.80124 126.84972 28699 ft 321 kts 250°
2026-05-05 15:13 45.79271 126.82048 28325 ft 318 kts 250°
2026-05-05 15:14 45.78426 126.79154 27950 ft 314 kts 250°
2026-05-05 15:14 45.77585 126.76278 27574 ft 311 kts 250°
2026-05-05 15:14 45.76753 126.73437 27199 ft 308 kts 250°
2026-05-05 15:14 45.75929 126.70626 26825 ft 306 kts 250°
2026-05-05 15:15 45.75112 126.67840 26450 ft 303 kts 250°
2026-05-05 15:15 45.74300 126.65076 26074 ft 300 kts 250°
2026-05-05 15:15 45.73495 126.62340 25699 ft 297 kts 250°
2026-05-05 15:15 45.72698 126.59632 25332 ft 295 kts 250°
2026-05-05 15:16 45.72208 126.57971 25131 ft 292 kts 250°
2026-05-05 15:16 45.71426 126.55318 24805 ft 288 kts 250°
2026-05-05 15:16 45.70652 126.52701 24479 ft 284 kts 250°
2026-05-05 15:16 45.69893 126.50132 24154 ft 280 kts 250°
2026-05-05 15:17 45.69141 126.47594 23828 ft 276 kts 250°
2026-05-05 15:17 45.68399 126.45088 23502 ft 273 kts 250°
2026-05-05 15:17 45.67661 126.42600 23177 ft 271 kts 250°
2026-05-05 15:17 45.66929 126.40133 22854 ft 270 kts 250°
2026-05-05 15:18 45.66195 126.37661 22528 ft 269 kts 250°
2026-05-05 15:18 45.65468 126.35215 22203 ft 268 kts 250°
2026-05-05 15:18 45.64742 126.32778 21878 ft 266 kts 250°
2026-05-05 15:18 45.63936 126.30406 21551 ft 267 kts 243°
2026-05-05 15:19 45.62779 126.28307 21226 ft 272 kts 231°
2026-05-05 15:19 45.61260 126.26649 20900 ft 281 kts 218°
2026-05-05 15:19 45.59412 126.25609 20574 ft 294 kts 204°
2026-05-05 15:19 45.57403 126.25027 20254 ft 295 kts 202°
2026-05-05 15:20 45.55395 126.24493 19929 ft 294 kts 201°
2026-05-05 15:20 45.53392 126.23988 19604 ft 292 kts 201°
2026-05-05 15:20 45.51397 126.23503 19280 ft 291 kts 200°
2026-05-05 15:20 45.49413 126.23032 18955 ft 289 kts 200°
2026-05-05 15:21 45.47435 126.22571 18631 ft 288 kts 200°
2026-05-05 15:21 45.45463 126.22116 18305 ft 286 kts 200°
2026-05-05 15:21 45.43506 126.21668 17981 ft 285 kts 200°
2026-05-05 15:21 45.41554 126.21223 17667 ft 284 kts 200°
2026-05-05 15:22 45.39619 126.20784 17368 ft 282 kts 200°
2026-05-05 15:22 45.37690 126.20347 17067 ft 280 kts 200°
2026-05-05 15:22 45.35777 126.19914 16768 ft 279 kts 200°
2026-05-05 15:22 45.33872 126.19484 16468 ft 277 kts 200°
2026-05-05 15:23 45.31972 126.19055 16169 ft 277 kts 200°
2026-05-05 15:23 45.30071 126.18627 15868 ft 276 kts 200°
2026-05-05 15:23 45.28187 126.18203 15569 ft 275 kts 200°
2026-05-05 15:23 45.26303 126.17779 15271 ft 275 kts 200°
2026-05-05 15:24 45.24417 126.17354 14982 ft 275 kts 200°
2026-05-05 15:24 45.22536 126.16932 14731 ft 273 kts 200°
2026-05-05 15:24 45.20664 126.16512 14481 ft 272 kts 200°
2026-05-05 15:24 45.18806 126.16096 14233 ft 271 kts 200°
2026-05-05 15:25 45.16952 126.15680 13981 ft 271 kts 200°
2026-05-05 15:25 45.15096 126.15264 13733 ft 270 kts 200°
2026-05-05 15:25 45.13248 126.14851 13483 ft 268 kts 200°
2026-05-05 15:25 45.11410 126.14440 13234 ft 267 kts 200°
2026-05-05 15:26 45.09583 126.14032 13020 ft 265 kts 200°
2026-05-05 15:26 45.07776 126.13629 12846 ft 263 kts 200°
2026-05-05 15:26 45.05977 126.13228 12670 ft 261 kts 200°
2026-05-05 15:26 45.04187 126.12828 12495 ft 261 kts 200°
2026-05-05 15:27 45.02400 126.12429 12322 ft 260 kts 200°
2026-05-05 15:27 45.00619 126.12032 12145 ft 259 kts 200°
2026-05-05 15:27 44.98838 126.11633 11969 ft 262 kts 200°
2026-05-05 15:27 44.97047 126.11235 11795 ft 260 kts 200°
2026-05-05 15:28 44.95265 126.10839 11620 ft 259 kts 200°
2026-05-05 15:28 44.93491 126.10446 11445 ft 258 kts 200°
2026-05-05 15:28 44.91724 126.10054 11270 ft 257 kts 200°
2026-05-05 15:28 44.89961 126.09663 11080 ft 257 kts 200°
2026-05-05 15:29 44.88209 126.09275 10879 ft 254 kts 200°
2026-05-05 15:29 44.86470 126.08890 10680 ft 253 kts 200°
2026-05-05 15:29 44.84737 126.08506 10480 ft 252 kts 200°
2026-05-05 15:29 44.83014 126.08124 10282 ft 251 kts 200°
2026-05-05 15:30 44.81295 126.07744 10080 ft 250 kts 200°
2026-05-05 15:30 44.79582 126.07365 9879 ft 249 kts 200°
2026-05-05 15:30 44.77874 126.06987 9702 ft 248 kts 200°
2026-05-05 15:30 44.76177 126.06612 9527 ft 248 kts 200°
2026-05-05 15:31 44.74503 126.06168 9352 ft 242 kts 204°
2026-05-05 15:31 44.72922 126.05456 9176 ft 236 kts 211°
2026-05-05 15:31 44.71467 126.04473 9006 ft 231 kts 217°
2026-05-05 15:31 44.70071 126.03381 8827 ft 229 kts 218°
2026-05-05 15:32 44.68687 126.02281 8651 ft 229 kts 218°
2026-05-05 15:32 44.67270 126.01147 8478 ft 237 kts 219°
2026-05-05 15:32 44.65849 126.00002 8303 ft 235 kts 219°
2026-05-05 15:32 44.64439 125.98858 8127 ft 234 kts 219°
2026-05-05 15:33 44.63036 125.97720 7953 ft 233 kts 219°
2026-05-05 15:33 44.61637 125.96583 7779 ft 232 kts 219°
2026-05-05 15:33 44.60245 125.95451 7602 ft 231 kts 219°
2026-05-05 15:33 44.58857 125.94323 7428 ft 231 kts 219°
2026-05-05 15:34 44.57476 125.93201 7254 ft 230 kts 219°
2026-05-05 15:34 44.56092 125.92077 7077 ft 229 kts 219°
2026-05-05 15:34 44.54704 125.90980 6901 ft 231 kts 216°
2026-05-05 15:34 44.53220 125.90093 6727 ft 235 kts 209°
2026-05-05 15:35 44.51615 125.89516 6549 ft 241 kts 201°
2026-05-05 15:35 44.49964 125.89115 6381 ft 241 kts 200°
2026-05-05 15:35 44.48314 125.88728 6203 ft 241 kts 200°
2026-05-05 15:35 44.46665 125.88350 6029 ft 240 kts 200°
2026-05-05 15:36 44.45026 125.87981 5855 ft 239 kts 200°
2026-05-05 15:36 44.43386 125.87616 5679 ft 238 kts 200°
2026-05-05 15:36 44.41751 125.87255 5504 ft 238 kts 200°
2026-05-05 15:36 44.40125 125.86899 5330 ft 237 kts 199°
2026-05-05 15:37 44.38502 125.86546 5151 ft 236 kts 199°
2026-05-05 15:37 44.36886 125.86192 4979 ft 235 kts 199°
2026-05-05 15:37 44.35276 125.85839 4807 ft 232 kts 199°
2026-05-05 15:37 44.33697 125.85495 4628 ft 229 kts 199°
2026-05-05 15:38 44.32123 125.85151 4454 ft 230 kts 199°
2026-05-05 15:38 44.30975 125.84899 4328 ft 233 kts 198°
2026-05-05 15:38 44.29364 125.84545 4153 ft 236 kts 198°
2026-05-05 15:38 44.27736 125.84189 3978 ft 238 kts 197°
2026-05-05 15:39 44.26103 125.83833 3803 ft 240 kts 196°
2026-05-05 15:39 44.24455 125.83474 3627 ft 241 kts 195°
2026-05-05 15:39 44.22832 125.82994 3448 ft 238 kts 204°
2026-05-05 15:39 44.21399 125.81875 3273 ft 235 kts 222°
2026-05-05 15:40 44.20244 125.80243 3107 ft 242 kts 230°
2026-05-05 15:40 44.19118 125.78518 3026 ft 241 kts 230°
2026-05-05 15:40 44.18004 125.76773 3008 ft 241 kts 231°
2026-05-05 15:40 44.16899 125.75021 3001 ft 241 kts 231°
2026-05-05 15:41 44.15793 125.73258 3005 ft 247 kts 231°
2026-05-05 15:41 44.14675 125.71466 3002 ft 245 kts 232°
2026-05-05 15:41 44.13564 125.69679 3003 ft 244 kts 232°
2026-05-05 15:41 44.12456 125.67895 3002 ft 244 kts 232°
2026-05-05 15:42 44.11357 125.66121 3003 ft 242 kts 231°
2026-05-05 15:42 44.10256 125.64347 3005 ft 242 kts 231°
2026-05-05 15:42 44.09157 125.62575 3004 ft 242 kts 231°
2026-05-05 15:42 44.08055 125.60792 3006 ft 240 kts 230°
2026-05-05 15:43 44.06970 125.59041 3006 ft 239 kts 229°
2026-05-05 15:43 44.05882 125.57294 3005 ft 239 kts 229°
2026-05-05 15:43 44.04795 125.55551 3007 ft 239 kts 229°
2026-05-05 15:43 44.03704 125.53817 3006 ft 239 kts 229°
2026-05-05 15:44 44.02618 125.52079 3006 ft 239 kts 229°
2026-05-05 15:44 44.01528 125.50335 3007 ft 239 kts 229°
2026-05-05 15:44 44.00465 125.48643 3005 ft 225 kts 229°
2026-05-05 15:44 43.99476 125.47072 3009 ft 209 kts 229°
2026-05-05 15:45 43.98564 125.45625 3011 ft 191 kts 229°
2026-05-05 15:45 43.97698 125.44256 3017 ft 188 kts 229°
2026-05-05 15:45 43.96837 125.42893 3009 ft 188 kts 229°
2026-05-05 15:45 43.95977 125.41530 3007 ft 188 kts 229°
2026-05-05 15:46 43.95119 125.40169 3006 ft 188 kts 229°
2026-05-05 15:46 43.94255 125.38816 3004 ft 188 kts 226°
2026-05-05 15:46 43.93129 125.37999 2987 ft 180 kts 194°
2026-05-05 15:46 43.91918 125.38264 2996 ft 181 kts 159°
2026-05-05 15:47 43.90876 125.39252 3021 ft 182 kts 148°
2026-05-05 15:47 43.89926 125.40414 3013 ft 183 kts 138°
2026-05-05 15:47 43.89054 125.41709 3010 ft 184 kts 137°
2026-05-05 15:47 43.88376 125.43202 2989 ft 189 kts 111°
2026-05-05 15:48 43.88088 125.44982 3017 ft 190 kts 105°
2026-05-05 15:48 43.87840 125.46782 3009 ft 190 kts 102°
2026-05-05 15:48 43.87735 125.48600 2987 ft 192 kts 84°
2026-05-05 15:48 43.88290 125.50269 3012 ft 193 kts 55°
2026-05-05 15:49 43.89146 125.51710 3016 ft 194 kts 49°
2026-05-05 15:49 43.90005 125.53076 3014 ft 180 kts 49°
2026-05-05 15:49 43.90800 125.54344 3000 ft 171 kts 49°
2026-05-05 15:49 43.91573 125.55580 2848 ft 167 kts 49°
2026-05-05 15:50 43.92312 125.56764 2629 ft 163 kts 49°
2026-05-05 15:50 43.93084 125.58003 2424 ft 175 kts 49°
2026-05-05 15:50 43.93903 125.59311 2205 ft 185 kts 50°
2026-05-05 15:50 43.94740 125.60652 1967 ft 184 kts 52°
2026-05-05 15:51 43.95569 125.61993 1726 ft 183 kts 51°
2026-05-05 15:51 43.96375 125.63292 1448 ft 171 kts 50°
2026-05-05 15:51 43.97099 125.64480 1185 ft 155 kts 50°
2026-05-05 15:51 43.97782 125.65588 1041 ft 144 kts 48°
2026-05-05 15:52 43.98441 125.66633 846 ft 145 kts 49°
2026-05-05 15:52 43.99099 125.67670 728 ft 135 kts 49°
2026-05-05 15:52 43.99609 125.68479 721 ft 86 kts 49°
2026-05-05 15:52 43.99779 125.68755 721 ft 14 kts 51°
2026-05-05 15:53 43.99842 125.68862 721 ft 14 kts 50°
2026-05-05 15:53 43.99902 125.68968 721 ft 14 kts 59°
2026-05-05 15:53 43.99940 125.69087 721 ft 13 kts 74°
2026-05-05 15:53 43.99956 125.69211 721 ft 13 kts 82°
2026-05-05 15:54 43.99945 125.69313 721 ft 10 kts 158°
2026-05-05 15:54 43.99880 125.69289 721 ft 10 kts 219°
2026-05-05 15:54 43.99841 125.69214 721 ft 9 kts 232°
2026-05-05 15:54 43.99802 125.69145 721 ft 9 kts 230°
2026-05-05 15:55 43.99753 125.69066 721 ft 11 kts 229°
2026-05-05 15:55 43.99704 125.68987 721 ft 11 kts 229°
2026-05-05 15:55 43.99640 125.68976 721 ft 10 kts 146°
2026-05-05 15:55 43.99587 125.69037 721 ft 10 kts 140°
2026-05-05 15:56 43.99541 125.69038 721 ft 7 kts 220°
2026-05-05 15:56 43.99500 125.69021 721 ft 6 kts 161°
2026-05-05 15:56 43.99467 125.69057 721 ft 6 kts 138°
2026-05-05 15:56 43.99446 125.69083 721 ft 0 kts 139°